Regional Weather Roundup
Issued by NWS Glasgow, MT

Home | Current Version | Previous Version | Text Only | Print | Product List | Glossary On
Versions: 1 2 3 4 5 6 7 8 9 10 11 12 13 14 15 16 17 18 19 20 21 22 23 24 25
000
ASUS45 KGGW 271815
RWRGGW
HOURLY REGIONAL WEATHER ROUNDUP FOR NORTHEAST MONTANA
NATIONAL WEATHER SERVICE GLASGOW MONTANA
1200 PM MDT THU APR 27 2017

NOTE: "FAIR" INDICATES FEW OR NO CLOUDS BELOW 12,000 FEET WITH NO
SIGNIFICANT WEATHER AND/OR OBSTRUCTIONS TO VISISBILITY.

NORTHEAST MONTANA


CITY           SKY/WX    TMP DP  RH WIND       PRES   REMARKS
GLASGOW        CLOUDY    50  25  37 E13G18    29.68S
6HR MIN TEMP:  31; 6HR MAX TEMP:  50;

PLENTYWOOD       N/A     44  19  36 E7          N/A
WOLF POINT     SUNNY     51  27  39 E12G28    29.71S
JORDAN           N/A     51  29  42 E16       29.64S
WINNETT          N/A     42  38  85 E3          N/A
SIDNEY         SUNNY     48  24  39 E12       29.72F
GLENDIVE       SUNNY     47  27  45 SE13      29.69S
MALTA            N/A     40  38  93 E3          N/A
SCOBEY           N/A     47  24  41 E10G16    29.72S

FORT PECK REPORTS


CITY           SKY/WX    TMP DP  RH WIND       PRES   REMARKS
FORT PECK        N/A     52  29  41 E13         N/A
THE PINES        N/A     52  24  33 CALM        N/A

SOUTHEAST MONTANA


CITY           SKY/WX    TMP DP  RH WIND       PRES   REMARKS
BILLINGS       LGT RAIN  43  38  82 N15       29.62R
MILES CITY     CLOUDY    51  28  41 SE10      29.63S
BAKER          SUNNY     44  28  53 SE14G21   29.67S
LIVINGSTON     CLOUDY    38  37  97 SW13      29.68R

CENTRAL MONTANA


CITY           SKY/WX    TMP DP  RH WIND       PRES   REMARKS
HAVRE          CLOUDY    44  40  85 NE13      29.67R
LEWISTOWN      LGT RAIN  39  35  86 NW17      29.65R
GREAT FALLS    LGT RAIN  40  35  83 N13       29.68R
CUT BANK       LGT SNOW  37  36  96 N17       29.70R FOG
HELENA         CLOUDY    48  27  44 W25G32    29.70S
BUTTE          FLURRIES  37  23  56 NW16G24   29.74R
BOZEMAN        CLOUDY    42  32  67 N3        29.71S

WESTERN MONTANA


CITY           SKY/WX    TMP DP  RH WIND       PRES   REMARKS
MISSOULA       CLOUDY    45  27  49 W9        29.82R
KALISPELL      NOT AVBL

NORTH DAKOTA


CITY           SKY/WX    TMP DP  RH WIND       PRES   REMARKS
WILLISTON      SUNNY     48  21  34 VRB7      29.74F
DICKINSON      SUNNY     41  24  51 NE8       29.69S
MINOT          SUNNY     45  19  35 N10       29.75F
BISMARCK       SUNNY     48  25  40 NE13      29.73F

SOUTHERN SASKATCHEWAN


CITY           SKY/WX    TMP DP  RH WIND       PRES   REMARKS
REGINA         MOSUNNY   46  12  25 SE16G26   29.79F
MOOSE JAW      MOSUNNY   46  21  36 SE13G20   29.78S
ESTEVAN        MOSUNNY   45  12  26 NE9G21    29.77F
SWIFT CURRENT  CLOUDY    48  27  43 SE13G22   29.69R





USA.gov is the U.S. government's official web portal to all federal, state and local government web resources and services.